www.pogodaiklimat.ru

Погода и климат >> Архив погоды >> Россия >> Чукотка >> Бухта Амбарчик


ПОГОДА в Бухте Амбарчик

  • Прогноз погоды в Бухте Амбарчик
  • Монитор погоды в Бухте Амбарчик
  • Климат города

АРХИВ ПОГОДЫ в Бухте Амбарчик

Время (UTC), дата Ветер
(напр.,м/с)
 
Видим.   Явления Облачность Т
(С)
Тd
(С)
f
(%)
Тe
(С)
Тes
(С)
Комфортность P
(гПа)
Po
(гПа)
Тmin
(С)
Tmax
(С)
R
(мм)
R24
(мм)
S
(см)
21 18.04 ЮЗ 1
{5}
20 км 6/0
[Ci fib]
-9.9 -12.2 83 -12 -9 1009.8 1006.7 -11.4 38
00 19.04 штиль 0
{5}
20 км 6/0
[Ci fib]
-5.9 -11.8 63 -6 +1 1010.5 1007.5
03 19.04 СВ 1
{5}
20 км 6/0
[Ac trans Ci fib]
-7.3 -10.8 76 -10 -4 1011.0 1007.9
06 19.04 В 4
{6}
4000 м туман на расстоянии 6/0
[Ci fib]
-9.5 -10.3 94 -17 -15 1011.7 1008.6
09 19.04 В 2
{5}
1000 м дымка 8/3 100 м
[St Ci fib]
-10.8 -11.8 92 -15 -15 1012.4 1009.3 -4.7
12 19.04 ЮВ 1
{6}
4000 м дымка 6/3 100 м
[St Ci fib]
-13.0 -14.2 91 -15 -15 1013.2 1010.1
15 19.04 В 1
{5}
4000 м дымка 6/1 100 м
[St Ci fib]
-15.0 -16.7 87 -18 -18 1014.0 1010.9
18 19.04 штиль 0
{5}
4000 м дымка 8/1 100 м
[St Ci fib]
-16.0 -17.9 85 -16 -16 1014.7 1011.6
21 19.04 С 1
{5}
20 км 3/3 100 м
[St]
-13.9 -15.6 87 -16 -14 1015.6 1012.5 -16.4 38
00 20.04 З 1
{6}
20 км ясно -10.4 -11.6 91 -13 -5 1016.3 1013.2
03 20.04 В 5
{6}
20 км ясно -8.8 -10.3 89 -17 -14 1016.3 1013.2
06 20.04 В 5
{9}
20 км позёмок {метель} 3/3 100 м
[St]
-8.9 -10.3 90 -17 -16 1016.8 1013.7
09 20.04 В 6
{9}
4000 м позёмок {метель} 8/4 100 м
[St Ci fib]
-10.3 -11.5 91 -19 -19 1017.1 1014.1 -8.3
12 20.04 В 4
{7}
4000 м дымка {метель} 8/4 100 м
[St Ci fib]
-11.5 -12.8 90 -19 -19 1017.1 1014.0
15 20.04 В 4
{7}
4000 м дымка {метель} 3/3 100 м
[St]
-12.6 -14.0 89 -20 -20 1017.2 1014.1
18 20.04 СВ 1
{6}
10 км {метель} 3/0
[Ci fib]
-15.2 -16.9 87 -18 -17 1017.4 1014.3
21 20.04 штиль 0
{5}
20 км 3/0
[Ci fib]
-14.6 -16.3 87 -15 -11 1017.8 1014.7 -15.5 38
00 21.04 штиль 0
{5}
20 км 3/0
[Ci fib]
-10.3 -11.6 90 -11 -3 1018.2 1015.1
03 21.04 В 2
{5}
20 км ясно -10.5 -12.2 87 -15 -9 1018.4 1015.3
06 21.04 В 3
{4}
20 км 3/0
[Ci fib]
-10.1 -11.9 87 -16 -14 1017.9 1014.8
09 21.04 В 4
{5}
20 км 3/0
[Ci fib]
-11.5 -13.3 86 -19 -19 1018.0 1014.9 -9.2
12 21.04 СЗ 1
{5}
20 км 3/0
[Ci fib]
-15.3 -16.7 89 -18 -18 1017.8 1014.7
15 21.04 СЗ 1
{6}
20 км 3/0
[Ac trans Ci fib]
-16.1 -17.7 87 -19 -19 1017.3 1014.2
18 21.04 З 1
{5}
20 км 3/0
[Ci fib]
-15.5 -17.2 87 -18 -18 1017.5 1014.4
21 21.04 Ю 1
{5}
20 км ясно -11.2 -12.8 88 -13 -10 1018.0 1014.9 -17.3 38
00 22.04 С 1
{5}
20 км 4/0
[Ci fib]
-9.3 -12.0 81 -12 -5 1018.2 1015.1
03 22.04 В 3
{4}
20 км 3/0
[Ci fib]
-8.2 -10.0 87 -14 -9 1018.2 1015.1
06 22.04 В 3
{4}
20 км 3/0
[Ci fib]
-8.3 -9.9 88 -14 -12 1018.0 1014.9
09 22.04 В 3
{5}
20 км 3/0
[Ci fib]
-10.8 -12.3 89 -17 -17 1017.9 1014.8 -6.9
12 22.04 СЗ 1
{5}
20 км 3/0
[Ci fib]
-14.4 -15.9 88 -17 -17 1017.7 1014.6
15 22.04 СВ 1
{5}
20 км 3/0
[Ci fib]
-14.6 -16.0 89 -17 -17 1017.6 1014.5
18 22.04 З 1
{6}
20 км 3/0
[Ci fib]
-13.3 -15.1 86 -16 -15 1017.2 1014.1
21 22.04 СЗ 1
{5}
20 км 3/0
[Ci fib]
-13.4 -15.8 82 -16 -12 1017.6 1014.5 -16.4 38
00 23.04 штиль 0
{5}
20 км 4/0
[Ci fib]
-9.3 -12.4 78 -10 -2 1017.3 1014.2
03 23.04 СВ 1
{1}
20 км 4/0
[Ci fib]
-5.8 -9.4 76 -8 -1 1016.5 1013.5
06 23.04 В 1
{2}
20 км 4/0
[Ci fib]
-6.8 -9.2 83 -9 -7 1015.7 1012.7
09 23.04 ЮВ 1
{2}
20 км 4/0
[Ci fib]
-9.4 -10.9 89 -12 -12 1015.5 1012.4 -3.6
12 23.04 СЗ 1
{6}
20 км 4/0
[Ci fib]
-11.9 -12.8 93 -14 -14 1014.8 1011.7
15 23.04 ЮВ 1
{5}
20 км 3/0
[Ci fib]
-12.3 -13.8 89 -15 -15 1014.0 1010.9
18 23.04 ЮВ 1
{5}
20 км 3/0
[Ci fib]
-16.1 -17.9 86 -19 -18 1013.1 1010.0
21 23.04 В 1
{6}
20 км ясно -14.5 -17.7 77 -17 -13 1012.1 1009.0 -18.2 38
00 24.04 В 3
{5}
20 км ясно -12.9 -15.3 82 -19 -13 1010.5 1007.4
03 24.04 В 3
{5}
20 км ясно -8.8 -11.5 81 -15 -9 1008.6 1005.5
06 24.04 В 5
{8}
20 км позёмок {метель} ясно -9.5 -11.1 88 -17 -16 1006.8 1003.8
09 24.04 штиль 0
{9}
50 км позёмок {метель} ?/? -12.9 -14.5 88 -13 -13 1005.6 1002.5 -7.8
12 24.04 В 3
{7}
20 км {метель} ясно -15.5 -17.2 87 -22 -22 1004.4 1001.3
15 24.04 В 4
{7}
20 км {метель} ясно -16.4 -18.6 83 -25 -25 1003.3 1000.2
18 24.04 В 3
{5}
20 км {метель} 3/0
[Ci fib]
-17.7 -19.9 83 -25 -25 1002.7 999.6
21 24.04 В 4
{6}
20 км 3/0
[Ci fib]
-16.4 -18.9 81 -25 -22 1002.4 999.3 -17.8 38
00 25.04 В 4
{6}
20 км 3/0
[Ci fib]
-12.6 -15.4 80 -20 -16 1001.6 998.6
03 25.04 СВ 5 4000 м мгла 4/1 600 м
[Sc Ac trans]
+27.2 -13.4 6 +34 +36 очень
душно
1010.7 998.2 +19.5
06 25.04 В 8-11
{11}
20 км позёмок {метель} 3/0
[Ci fib]
-11.0 -13.0 85 -21 -20 1001.3 998.3
09 25.04 В 5
{13}
20 км {метель} 3/0
[Ci fib]
-11.0 -14.4 76 -19 -19 1002.0 999.0 -9.3
12 25.04 ЮВ 3
{8}
20 км {метель} 3/0
[Ci fib]
-13.0 -15.9 79 -19 -19 1002.8 999.7
15 25.04 В 5
{10}
20 км {метель} 3/0
[Ci fib]
-14.8 -17.2 82 -24 -24 1002.4 999.3
18 25.04 В 8-11
{11}
1000 м позёмок {метель} 3/3 100 м
[St]
-15.8 -17.6 86 -27 -27 1002.8 999.7

 

Местоположение метеостанции Бухта Амбарчик (Чукотка, Россия): широта 69.62 долгота 162.30 высота над уровнем моря 23 м.

В архиве по умолчанию представлена погода в Бухте Амбарчик за последнюю неделю. Архивные данные за месяц целиком и за предыдущие месяцы, начиная с января 2011 года, Вы можете получить, выбрав интересующий диапазон дат из раскрывающегося списка и нажав кнопку "Ввод!".


*Определитесь, кто Вы:
робот инопланетянин человек

Внимание! Время в таблицах - всемирное. Для получения местного времени необходимо прибавить поправку, которая в Бухте Амбарчик равна 12 ч.

Смотрите также архив погоды в соседних городах и на ближайших метеорологических станциях:

Погода в Черском (Якутия, Россия) (107 км)
Погода в Анюйске (Чукотка, Россия) (145 км)
Погода в Раучуе (Чукотка, Россия) (164 км)
Погода в Константиновской (Чукотка, Россия) (170 км)
Погода в Колымской (Якутия, Россия) (177 км)
Погода на Островном (Чукотка, Россия) (182 км)
Погода на Айон Острове (Чукотка, Россия) (218 км)
Погода в Билибино (Чукотка, Россия) (240 км)
Погода в Певеке (Чукотка, Россия) (305 км)
Погода в Андрюшкино (Якутия, Россия) (309 км)

Пояснения к столбцам:

Ветер - указаны скорость ветра в м/с - средняя за 10 мин, порывы в срок и между сроками (в фигурных скобках) и направление, откуда дует ветер: С - северный, СВ - северо-восточный, В - восточный, ЮВ - юго-восточный, Ю - южный, ЮЗ - юго-западный, З - западный, СЗ - северо-западный.
Видимость - горизонтальная дальность видимости в метрах или километрах. При видимости от 1 до 10 км при отсутствии осадков обычно наблюдается дымка, при ухудшении видимости до 1 км и менее - туман. В сухую погоду видимость может ухудшаться дымом, пылью или мглою.
Явления - указаны атмосферные явления, наблюдавшиеся в срок или в последний час перед сроком; фигурными скобками обозначены явления, наблюдавшиеся между сроками (за 1-3 часа до срока); квадратными скобками обозначены град или гололедные отложения с указанием их диаметра в мм.
Облачность - указаны через наклонную черту общая и нижняя облачность в баллах и высота нижней границы облаков в метрах; квадратными скобками обозначены формы облаков: Ci - перистые, Cs - перисто-слоистые, Cc - перисто-кучевые, Ac - высококучевые, As - высокослоистые, Sc - слоисто-кучевые, Ns - слоисто-дождевые, Cu - кучевые, Cb - кучево-дождевые. Подробнее классификацию облаков см. в Атласе облаков (PDF).
T - Температура воздуха - температура, измеренная на высоте 2 м над землей.
Td - Температура точки росы - температура, при понижении до которой содержащийся в воздухе водяной пар достигнет насыщения.
f - Относительная влажность воздуха - влажноcть воздуха, измеренная на высоте 2 м над землей.
Te - Эффективная температура - температура, которую ощущает одетый по сезону человек в тени. Характеристика душности погоды. При расчете учитывается влияние влажности воздуха и скорости ветра на теплоощущения человека.
Tes - Эффективная температура на солнце - температура, которую ощущает человек, с поправкой на солнечный нагрев. Характеристика знойности погоды. Зависит от высоты солнца над горизонтом, облачности и скорости ветра. Ночью, в пасмурную погоду, а также при ветре 12 м/с и более поправка равна нулю.
P - Атмосферное давление - приведенное к уровню моря атмосферное давление.
Po - Атмосферное давление - измеренное на уровне метеостанции атмосферное давление.
Tmin - Минимальная температура - минимум температуры воздуха на высоте 2 м над землей.
Tmax - Максимальная температура - максимум температуры воздуха на высоте 2 м над землей.
R - Количество осадков - Количество выпавших осадков за период времени, мм. При наведении курсора мыши на число - период времени, за который выпало указанное количество осадков.
R24 - Количество осадков - Количество выпавших осадков за 24 часа, мм.
S - Снежный покров - Высота снежного покрова, см. При наведении курсора мыши на число - состояние снежного покрова и степень покрытия местности в баллах.